Overview Statistics Trail Chart Weather Telemetry Raw packets
 

This is the latest recevied weather packets stored in our database for station/object KJ6HT. If no packets are shown the sender has not sent any weather packets the latest 10 day(s).

<< 22 23 24 25 26 27 28 >>
Time Temp. Humidity Pressure Rain* Wind** Luminosity Snow
1788108365 29.44° C 54% 1010.1 hPa 0 mm - - -
1788107406 28.89° C 56% 1010.1 hPa 0 mm - - -
1788106568 28.33° C 60% 1010.1 hPa 0 mm - - -
1788105652 28.33° C 62% 1010.2 hPa 0 mm - - -
1788104785 27.78° C 64% 1010.3 hPa 0 mm - - -
1788103854 26.67° C 69% 1010.4 hPa 0 mm - - -
1788102916 25° C 73% 1010.3 hPa 0 mm - - -
1788101166 26.11° C 71% 1010.4 hPa 0 mm - - -
1788100220 24.44° C 77% 1010.3 hPa 0 mm - - -
1788099372 23.33° C 82% 1010.2 hPa 0 mm - - -
1788098412 21.67° C 84% 1010.3 hPa 0 mm - - -
1788097570 21.67° C 85% 1010.1 hPa 0 mm - - -
1788096623 21.67° C 84% 1010 hPa 0 mm - - -
1788095764 22.22° C 83% 1009.9 hPa 0 mm - - -
1788094855 22.78° C 79% 1009.8 hPa 0 mm - - -
1788093924 21.67° C 85% 1009.6 hPa 0 mm - - -
1788093071 21.67° C 84% 1009.5 hPa 0 mm - - -
1788092136 22.22° C 81% 1009.3 hPa 0 mm - - -
1788091268 22.78° C 79% 1009.2 hPa 0 mm - - -
1788090332 23.33° C 79% 1009.3 hPa 0 mm - - -
1788089473 22.22° C 81% 1009.2 hPa 0 mm - - -
1788088538 22.78° C 81% 1009.3 hPa 0 mm - - -
1788087665 23.33° C 79% 1009.2 hPa 0 mm - - -
1788086731 23.89° C 78% 1009.1 hPa 0 mm - - -
1788085890 23.33° C 77% 1009.1 hPa 0 mm - - -

* Rain latest hour (hover to see other rain measurements)
** Current wind speed in m/s (hover to see current wind gust speed)